Terug naar catalogus

STARLINK-4364

ActiefCommunicatieSSO
NORAD 53230·PAYLOAD·🇺🇸 United States

Gelanceerd Jul 22, 2022 vanaf Vandenberg Space Force Base

Loading…

Volgende Passages (komende 24 uur)

TLE

VersSource: CelesTrak SupGP

Epoch: Sep 15, 2026, 02:12 UTC

1 53230C 22084AT  26258.09215278  .00029827  00000+0  92583-3 0  2581
2 53230  97.2840 313.8791 0001304  82.9255 318.2654 15.33426730    10

Volg STARLINK-4364 in realtime met AllMySat

Download on the App Store